Showing default

YAOGAN-30 L, 43171

Orbit data source: Space-Track

YAOGAN-30 L, 43171 is a payload satellite owned by PLA SSF (CN) in LEO that was launched on Thu, 25 Jan 2018 UTC via a CHANG ZHENG 2C launch vehicle from the Xichang Space Center, China (XSC). Payload-class satellites include a variety of spacecraft equipped with specific instruments for various scientific and technological missions. These include communications satellites like Starlink; space stations such as the ISS; scientific satellites like the Hubble; Earth observation satellites from companies like Planet Labs, Umbra, and HawkEye 360; GPS; miniature CubeSats for education and research; and military/defense satellites.

Loading next visibility...
Identifier
43171, 2018-011C
Orbit
LEO
Country
Flag of CNCN / PRC
Related business
Manufacturer
SECM
Mission
Operational Defense Sigint
Bus & Motor
Unknown
Mass
~500 kg wet, ~500 kg dry
Launch date (UTC)
2018-01-25 (8 years ago)
Launch vehicle
CHANG ZHENG 2C
Launch site
Xichang Space Center, China (XSC)
Object type
Payload
Rocket body
Debris
Shape & HBR
Box + 2 Pan, 0.5 m
Radar Cross Section
0.446 m², Large (>1 m²)

Expand to show TLE details & history
Last TLE update: 10 hours ago

TLE from 10 hours ago
0 YAOGAN-30 L
1 43171U 18011C   25310.75762278  .00005729  00000-0  43970-3 0  9991
2 43171  34.9962  64.9912 0001943 207.2104 152.8502 15.01183159424754
Epoch: 2025-11-06T18:10Z
TLE epoch observation values (Epoch: 2025-11-06T18:10:58.608Z)
Latitude
-0.00001°
Longitude
106.03563°
Altitude
563.364 km
Speed
7.581 km/s
True Right ascension
04h 19m 57s
True Declination
0° 00' 00"
Sunlit
Object was in full shadow at epoch
Visualization orbit readout
Latitude
Unknown
Longitude
Unknown
Altitude
Unknown
Speed
Unknown
Apparent Right ascension
Unknown
Apparent Declination
Unknown
Sunlit
N/A
Visualization observer readout
Local Sidereal Time
00:08:46
Azimuth
Unknown
Elevation
Unknown
Doppler factor
Unknown
Orbital elements
Apogee altitude
567.816 km
Perigee altitude
565.117 km
Semi-major axis
6,944.603 km
Eccentricity
0.00019
Inclination
34.9962°
RAAN
64.9912°
Arg. of periapsis
207.2104°
True anomaly
152.86036°
Mean anomaly
152.8502°
Eccentric anomaly
152.85528°
Mean motion
3.75035 °/min
Orbital period
95.99 mins
BSTAR
0.0004397
Loading maneuver chart data...
Computing Atmospheric mass density...
Loading historical data...
Loading historical data...
Loading historical data...
Loading historical data...
Loading historical data...
Loading historical data...
Loading historical data...
Other satellites on launch #11 in the year 2018 (2018-01-25 UTC)

Documentation

Showing up to 5 results
|